Santa Marta, Colombia

12:59 PM -05 on February 25, 2018 (GMT -0500)
Simon Bolivar

Weather History for SKSM - March, 2013

Change the Weather History Date:

Friday, March 8, 2013

  Actual Average Record
Temperature  
Mean Temperature 87 °F -  
Max Temperature 95 °F 93 °F 95 °F (2012)
Min Temperature 79 °F 76 °F 73 °F (1997)
Cooling Degree Days 22    
Growing Degree Days 37 (Base 50)    
Moisture  
Dew Point 74 °F    
Average Humidity 68    
Maximum Humidity 89    
Minimum Humidity 40    
Precipitation  
Precipitation 0.00 in 0.00 in - ()
Sea Level Pressure  
Sea Level Pressure 29.79 in    
Wind  
Wind Speed 7 mph ()    
Max Wind Speed 18 mph    
Max Gust Speed -    
Visibility 4.8 miles    
Events      
Averages and records for this station are not official NWS values.
T = Trace of Precipitation, MM = Missing Value Source: Averaged Metar Reports

Daily Weather History Graph

Daily Weather History Graph

Search for Another Location

Airport or City:

Trip Planner

Search our weather history database for the weather conditions in past years. The results will help you decide how hot, cold, wet, or windy it might be!

Date:

Astronomy

Mar. 08, 2013 Rise Set
Actual Time 6:07 AM -05 6:07 PM -05
Civil Twilight 5:46 AM -05 6:28 PM -05
Nautical Twilight 5:22 AM -05 6:52 PM -05
Astronomical Twilight 4:57 AM -05 7:17 PM -05
Moon 3:21 AM -05 (3/8) 3:24 PM -05 (3/8)
Length of Visible Light 12h 41m
Length of Day
11h 59m
Waning Crescent, 12% of the Moon is Illuminated
Mar 8
Waning Crescent
Mar 11
New
Mar 19
First Quarter
Mar 27
Full
Apr 2
Last Quarter

Hourly Weather History & Observations

Time (-05) Temp. Heat Index Dew Point Humidity Pressure Visibility Wind Dir Wind Speed Gust Speed Precip Events Conditions
7:00 AM 80 °F - 77 °F 87% 29.83 in 4 mi Calm Calm - -   Haze
7:00 AM 80.6 °F 87.1 °F 77.0 °F 89% 29.83 in 4.3 mi Calm Calm - N/A   Scattered Clouds
8:00 AM 80.6 °F 87.1 °F 77.0 °F 89% 29.83 in 4.3 mi Calm Calm - N/A   Scattered Clouds
9:00 AM 84.2 °F 94.1 °F 77.0 °F 79% 29.86 in 4.3 mi Calm Calm - N/A   Scattered Clouds
10:00 AM 85 °F - 77 °F 72% 29.87 in 4 mi SW 6.7 mph - -   Haze
10:00 AM 84.2 °F 94.1 °F 77.0 °F 79% 29.86 in 4.3 mi SW 6.9 mph - N/A   Scattered Clouds
11:00 AM 84.2 °F 94.1 °F 77.0 °F 79% 29.86 in 5.0 mi SW 9.2 mph - N/A   Scattered Clouds
12:00 PM 86.0 °F 96.9 °F 77.0 °F 74% 29.83 in 5.0 mi SW 4.6 mph - N/A   Scattered Clouds
1:00 PM 94 °F - 72 °F 40% 29.81 in 5 mi NE 8.9 mph - -   Haze
1:00 PM 93.2 °F 100.5 °F 71.6 °F 49% 29.80 in 5.0 mi NE 9.2 mph - N/A   Scattered Clouds
2:00 PM 93.2 °F 100.5 °F 71.6 °F 49% 29.77 in 5.0 mi North 11.5 mph - N/A   Scattered Clouds
3:00 PM 95.0 °F 103.2 °F 71.6 °F 47% 29.77 in 5.0 mi North 13.8 mph - N/A   Scattered Clouds
4:00 PM 91 °F - 73 °F 47% 29.75 in 5 mi NNE 17.9 mph - -   Haze
4:00 PM 91.4 °F 98.4 °F 71.6 °F 52% 29.74 in 5.0 mi NNE 18.4 mph - N/A   Scattered Clouds
5:00 PM 87.8 °F 95.6 °F 73.4 °F 62% 29.74 in 5.0 mi NNE 16.1 mph - N/A   Scattered Clouds
6:00 PM 86.0 °F 93.4 °F 73.4 °F 66% 29.74 in 5.0 mi NNE 13.8 mph - N/A   Scattered Clouds
7:00 PM 83 °F - 72 °F 63% 29.76 in 5 mi NNE 15.7 mph - -   Haze
7:00 PM 84.2 °F 90.9 °F 73.4 °F 70% 29.74 in 5.0 mi NNE 16.1 mph - N/A   Scattered Clouds
8:00 PM 82.4 °F 87.2 °F 71.6 °F 70% 29.74 in 5.0 mi NE 16.1 mph - N/A   Scattered Clouds
9:00 PM 80.6 °F 85.4 °F 73.4 °F 79% 29.74 in 5.0 mi NNE 13.8 mph - N/A   Scattered Clouds
10:00 PM 81 °F - 73 °F 71% 29.78 in 5 mi North 13.4 mph - -   Haze
10:00 PM 80.6 °F 85.4 °F 73.4 °F 79% 29.77 in 6.2 mi North 13.8 mph - N/A   Scattered Clouds